Regional Weather Roundup
Issued by NWS Little Rock, AR

Home | Current Version | Previous Version | Graphics & Text | Print | Product List | Glossary On
Versions: 1 2 3 4 5 6 7 8 9 10 11 12 13 14 15 16 17 18 19 20 21 22 23 24 25 26 27
000
ASUS44 KLZK 292105
RWRLZK

WEATHER ROUNDUP FOR ARKANSAS
NATIONAL WEATHER SERVICE LITTLE ROCK AR
400 PM CDT SUN MAY 29 2016

NOTE: "FAIR" INDICATES FEW OR NO CLOUDS BELOW 12,000 FEET WITH NO
SIGNIFICANT WEATHER AND/OR OBSTRUCTIONS TO VISIBILITY.

ARZ001-003-010-029-292200-
NORTHWEST ARKANSAS

CITY           SKY/WX    TMP DP  RH WIND       PRES   REMARKS
FAYETTEVILLE   MOSUNNY   82  66  58 CALM      30.10F
FORT SMITH     CLOUDY    86  67  52 NE6       30.06F HX  89
HARRISON       CLOUDY    81  62  52 CALM      30.13F
BENTONVILLE    PTSUNNY   82  61  47 SE6       30.11F
ROGERS         CLOUDY    84  65  52 S3        30.11F HX  86
SILOAM SPGS    MOSUNNY   81  63  54 SE3       30.11F
HIGHFILL       PTSUNNY   83  65  54 SE7       30.10F HX  85
SPRINGDALE     MOSUNNY   82  64  54 E6        30.13F
$$

ARZ004-005-016-292200-
NORTH CENTRAL ARKANSAS

CITY           SKY/WX    TMP DP  RH WIND       PRES   REMARKS
BATESVILLE     PTSUNNY   84  66  54 W6        30.09F HX  86
FLIPPIN        MOSUNNY  N/A N/A N/A N3        30.08F
MTN HOME       MOSUNNY   82  63  52 W5        30.10F
$$

ARZ040-041-292200-
WEST CENTRAL ARKANSAS

CITY           SKY/WX    TMP DP  RH WIND       PRES   REMARKS
MENA           CLOUDY    81  64  57 E7        30.10F
MOUNT IDA      CLOUDY    67  65  93 CALM      30.09F FOG
$$

ARZ009-017-025-026-028-292200-
NORTHEAST ARKANSAS

CITY           SKY/WX    TMP DP  RH WIND       PRES   REMARKS
CORNING        LGT RAIN  86  64  48 NW6       30.08F HX  87
JONESBORO      SUNNY     86  65  49 NW8       30.07F HX  88
NEWPORT        MOSUNNY   86  68  54 N6        30.09F HX  89
WALNUT RIDGE   MOSUNNY   88  63  42 N8        30.07F HX  88
BLYTHEVILLE    MOSUNNY   87  68  52 W7        30.07F HX  90
$$

ARZ022-023-033-042-044-292200-
CENTRAL ARKANSAS

CITY           SKY/WX    TMP DP  RH WIND       PRES   REMARKS
LITTLE ROCK    TSTM      71  63  75 SW21G40   30.11R SQUALL
N LITTLE ROCK    N/A     78  69  74 N3        30.08S
JACKSONVILLE   CLOUDY    81  71  72 W6        30.08S THUNDER
SEARCY         CLOUDY    84  71  65 E3        30.09F HX  89
HOT SPRINGS    LGT RAIN  68  63  84 SE8       30.12S
RUSSELLVILLE   CLOUDY    81  69  67 CALM      30.08F
CLINTON        FAIR      82  68  61 CALM      30.09F HX  85
$$

ARZ036-292200-
EAST ARKANSAS

CITY           SKY/WX    TMP DP  RH WIND       PRES   REMARKS
WEST MEMPHIS   SUNNY     85  67  54 W5        30.06F HX  87
$$

ARZ050-053-066-070-073-292200-
SOUTHWEST ARKANSAS

CITY           SKY/WX    TMP DP  RH WIND       PRES   REMARKS
ARKADELPHIA    TSTM      69  65  87 N10       30.11R
CAMDEN         SUNNY     95  66  38 W6        30.05F HX  98
TEXARKANA      SUNNY     89  69  51 VRB3      30.05F HX  93
EL DORADO      PTSUNNY   91  70  49 VRB5      30.06F HX  96
DE QUEEN       CLOUDY    88  72  58 CALM      30.03F HX  94
$$

ARZ056-057-069-292200-
SOUTHEAST ARKANSAS

CITY           SKY/WX    TMP DP  RH WIND       PRES   REMARKS
PINE BLUFF     MOSUNNY   87  70  56 CALM      30.05F HX  92
STUTTGART      MOSUNNY   84  64  51 N6        30.08S HX  86
MONTICELLO     SUNNY     91  70  49 SE7       30.05F HX  96

$$






USA.gov is the U.S. government's official web portal to all federal, state and local government web resources and services.